[[{"header":{"parameterUnit":"m.s-1","parameterCategory":1,"la1":30.2991,"la2":30.254,"lo1":-89.0895,"lo2":-89.0444,"dy":0.0017,"dx":0.0017,"nx":28,"ny":28,"refTime":"2025-12-15T09:00:00:Z","depth":0,"parameterNumber":2,"parameterNumberName":"U-component_of_WINDS"},"data":[0,0,0,0,0,0,0,0,0,0,0,0,0,0,0,0,0,0,0,0,0,0,0,0,0,0,0,0,0,0,0,0,0,0,0,0,0,0,0,0,0,0,0,0,0,0,0,0,0,0,0,0,0,0,0,0,0,0,-2.5894,-2.5895,0,-2.6,-2.6002,-2.6003,-2.5952,-2.5949,-2.5946,-2.5944,-2.6054,-2.606,-2.6065,0,0,0,0,0,0,0,0,0,0,0,0,0,-2.5648,-2.5653,-2.5894,-2.5895,-2.5897,-2.6,-2.6002,-2.6003,-2.5952,-2.5949,-2.5946,-2.5943,-2.6052,-2.6059,-2.6065,0,0,0,0,0,0,0,0,0,0,0,0,0,-2.5755,-2.5654,-2.5894,-2.5884,-2.5884,-2.6,-2.6002,-2.6003,-2.5953,-2.5949,-2.5945,-2.5941,-2.605,-2.6058,-2.6066,-2.6199,0,0,-2.6091,-2.6095,0,0,0,0,0,0,0,0,-2.5749,-2.5764,-2.5884,-2.5885,-2.5885,-2.5959,-2.5955,-2.6069,-2.5954,-2.5927,-2.5944,-2.5939,-2.6026,-2.6036,-2.6065,-2.6204,-2.6209,-2.6092,-2.6097,-2.6101,-2.6103,0,0,0,0,0,0,0,-2.5741,-2.5759,-2.5936,-2.5886,-2.5887,-2.5874,-2.5885,-2.5976,-2.5998,-2.5929,-2.5925,-2.5939,-2.6025,-2.6057,-2.6067,-2.621,-2.6092,-2.6099,-2.6104,-2.6108,-2.6463,-2.6467,0,0,0,0,0,0,-2.5734,-2.5753,-2.5933,-2.5939,-2.5805,-2.5882,-2.5894,-2.5939,-2.5997,-2.6002,-2.5942,-2.5936,-2.6045,-2.6057,-2.6071,-2.623,-2.6101,-2.6108,-2.6113,-2.6458,-2.6464,-2.6469,0,0,0,0,0,0,-2.5729,-2.5751,-2.5928,-2.5845,-2.5867,-2.589,-2.5942,-2.5943,-2.5975,-2.6007,-2.601,-2.597,-2.6042,-2.6059,-2.6167,-2.6233,-2.6112,-2.612,-2.6453,-2.646,-2.6466,-2.6549,0,0,0,0,0,0,-2.5722,-2.5749,-2.58,-2.5847,-2.5872,-2.6023,-2.5946,-2.5948,-2.5989,-2.5982,-2.6034,-2.6039,-2.604,-2.6155,-2.6175,-2.6242,-2.6126,-2.6447,-2.6456,-2.6464,-2.654,-2.6557,-2.6572,0,0,0,0,0,-2.5713,-2.5819,-2.5802,-2.5824,-2.5935,-2.6027,-2.6041,-2.604,-2.5995,-2.6046,-2.6066,-2.6037,-2.6222,-2.6167,-2.6189,-2.6259,-2.6443,-2.6454,-2.6463,-2.6533,-2.6554,-2.6572,0,0,0,0,0,0,-2.578,-2.5825,-2.5807,-2.5931,-2.5976,-2.6018,-2.6083,-2.6063,-2.6122,-2.6113,-2.6109,-2.6121,-2.6233,-2.6256,-2.6194,-2.639,-2.6325,-2.6341,-2.6371,-2.6391,-2.6407,-2.6399,-2.6133,0,0,0,0,0,-2.5809,-2.588,-2.5915,-2.6021,-2.6044,-2.606,-2.61,-2.6095,-2.6141,-2.616,-2.6188,-2.6234,-2.6302,-2.6348,-2.6412,-2.6542,-2.6553,-2.6601,-2.6617,-2.663,-2.6644,-2.6715,-2.6737,-2.6502,-2.6502,-2.6502,0,0,-2.587,-2.5903,-2.5948,-2.6035,-2.6069,-2.6143,-2.6076,-2.6157,-2.6211,-2.6172,-2.6276,-2.6298,-2.6349,-2.6469,-2.6523,-2.6492,-2.6711,-2.6643,-2.6653,-2.666,-2.6727,-2.675,-2.6769,-2.6509,-2.6508,-2.6506,0,0,-2.6019,-2.6051,-2.6143,-2.6178,-2.6229,-2.6239,-2.6261,-2.6306,-2.6319,-2.6423,-2.6395,-2.6459,-2.6577,-2.6615,-2.6649,-2.6811,-2.6787,-2.6831,-2.6916,-2.6985,-2.7003,-2.7019,-2.7078,-2.7099,-2.6845,-2.6845,-2.6845,0,-2.6089,-2.6198,-2.6193,-2.6276,-2.6315,-2.6281,-2.6374,-2.6408,-2.6479,-2.6507,-2.647,-2.6616,-2.6649,-2.6777,-2.6816,-2.6845,-2.687,-2.6827,-2.7001,-2.7017,-2.7032,-2.7088,-2.711,-2.685,-2.6849,-2.6849,-2.6848,0,-2.6281,-2.6357,-2.6425,-2.6493,-2.654,-2.6627,-2.6635,-2.6683,-2.6673,-2.6686,-2.6792,-2.6829,-2.69,-2.693,-2.6922,-2.7057,-2.7036,-2.7,-2.6936,-2.706,-2.7112,-2.7133,-2.6857,-2.6856,-2.6854,-2.6853,0,0,-2.6478,-2.654,-2.6565,-2.6596,-2.6649,-2.6708,-2.6794,-2.6863,-2.6904,-2.6953,-2.7025,-2.7124,-2.7091,-2.713,-2.7126,-2.7186,-2.7312,-2.7143,-2.7144,-2.7174,-2.7463,-2.7491,-2.7516,-2.7295,-2.7299,-2.7302,-2.7459,0,-2.6631,-2.6781,-2.6778,-2.6917,-2.6987,-2.6955,-2.703,-2.7071,-2.7085,-2.7147,-2.7162,-2.7233,-2.7183,-2.7207,-2.7265,-2.7284,-2.737,-2.7272,-2.7363,-2.7366,-2.7353,-2.7543,-2.7573,-2.7719,-2.748,-2.7483,-2.7485,0,-2.6831,-2.6886,-2.7032,-2.7075,-2.7104,-2.7171,-2.7234,-2.7293,-2.7338,-2.7344,-2.7387,-2.7372,-2.7459,-2.7391,-2.7511,-2.7444,-2.7481,-2.7495,-2.7501,-2.7511,-2.7435,-2.7559,-2.7766,-2.7788,-2.7517,-2.7515,-2.7513,0,-2.6961,-2.7071,-2.7173,-2.72,-2.7251,-2.7299,-2.7323,-2.7364,-2.7406,-2.746,-2.7487,-2.7551,-2.7587,-2.7636,-2.7639,-2.7589,-2.776,-2.7692,-2.7768,-2.7769,-2.7808,-2.7806,-2.8025,-2.7829,-2.7828,-2.7828,-2.7827,0,-2.7134,-2.7225,-2.7232,-2.7295,-2.7395,-2.739,-2.749,-2.7509,-2.7546,-2.7612,-2.7587,-2.765,-2.7649,-2.7713,-2.7715,-2.7814,-2.783,-2.7838,-2.7838,-2.7841,-2.7841,-2.7866,-2.7857,-2.7834,-2.7832,-2.7831,-2.783,0,-2.7297,-2.7305,-2.7414,-2.7453,-2.7465,-2.7538,-2.7572,-2.7632,-2.7642,-2.7726,-2.7745,-2.7763,-2.7836,-2.7843,-2.7929,-2.793,-2.805,-2.8039,-2.8035,-2.8034,-2.811,-2.8103,-2.8355,-2.8388,-2.8169,-2.8171,-2.8173,0,-2.7408,-2.7477,-2.7523,-2.7565,-2.7592,-2.766,-2.7702,-2.7699,-2.7743,-2.7799,-2.7852,-2.7923,-2.7979,-2.8098,-2.8119,-2.8184,-2.8174,-2.8258,-2.8184,-2.8185,-2.8177,-2.8173,-2.818,-2.8273,-2.8275,-2.8277,-2.8279,0,-2.7604,-2.7604,-2.7665,-2.7727,-2.7777,-2.7826,-2.7872,-2.7908,-2.791,-2.7962,-2.8036,-2.808,-2.8166,-2.8237,-2.83,-2.8325,-2.8303,-2.8301,-2.8322,-2.8328,-2.8323,-2.8327,-2.8076,-2.8296,-2.8294,-2.8293,-2.8292,-2.8291,-2.7745,-2.7805,-2.7846,-2.7915,-2.7949,-2.7992,-2.805,-2.8067,-2.8129,-2.8199,-2.8193,-2.8275,-2.8317,-2.84,-2.8429,-2.8494,-2.8466,-2.8497,-2.8505,-2.8513,-2.8521,-2.8311,-2.8505,-2.8505,-2.8504,-2.8504,-2.8503,0,-2.794,-2.7965,-2.8028,-2.8092,-2.8146,-2.8119,-2.8168,-2.8215,-2.8287,-2.8328,-2.8384,-2.8469,-2.8537,-2.8562,-2.8629,-2.8675,-2.8667,-2.8693,-2.869,-2.8696,-2.8542,-2.8517,-2.8699,-2.8699,-2.8699,-2.8699,-2.8698,-2.8698,-2.8049,-2.8148,-2.8153,-2.8269,-2.8293,-2.8373,-2.8404,-2.8443,-2.8476,-2.8572,-2.8628,-2.8643,-2.8678,-2.8746,-2.8807,-2.8813,-2.8839,-2.887,-2.8871,-2.8727,-2.8707,-2.8689,-2.8666,-2.8875,-2.8876,-2.9021,-2.9022,-2.9023]},{"header":{"parameterUnit":"m.s-1","parameterCategory":1,"la1":30.2991,"la2":30.254,"lo1":-89.0895,"lo2":-89.0444,"dy":0.0017,"dx":0.0017,"nx":28,"ny":28,"refTime":"2025-12-15T09:00:00:Z","depth":0,"parameterNumber":3,"parameterNumberName":"V-component_of_WINDS"},"data":[0,0,0,0,0,0,0,0,0,0,0,0,0,0,0,0,0,0,0,0,0,0,0,0,0,0,0,0,0,0,0,0,0,0,0,0,0,0,0,0,0,0,0,0,0,0,0,0,0,0,0,0,0,0,0,0,0,0,-7.3862,-7.3863,0,-7.3981,-7.3982,-7.3984,-7.3895,-7.3891,-7.3887,-7.3884,-7.4,-7.4006,-7.4013,0,0,0,0,0,0,0,0,0,0,0,0,0,-7.3549,-7.3556,-7.3861,-7.3863,-7.3865,-7.3981,-7.3982,-7.3984,-7.3896,-7.3891,-7.3886,-7.3882,-7.3998,-7.4006,-7.4014,0,0,0,0,0,0,0,0,0,0,0,0,0,-7.3678,-7.3558,-7.3861,-7.3835,-7.3833,-7.398,-7.3982,-7.3984,-7.3897,-7.3891,-7.3885,-7.388,-7.3995,-7.4005,-7.4015,-7.4193,0,0,-7.4045,-7.405,0,0,0,0,0,0,0,0,-7.3671,-7.369,-7.3837,-7.3837,-7.3836,-7.3917,-7.3915,-7.4054,-7.3898,-7.3872,-7.3883,-7.3877,-7.3977,-7.3988,-7.4023,-7.4198,-7.4203,-7.4046,-7.4052,-7.4057,-7.406,0,0,0,0,0,0,0,-7.3662,-7.3684,-7.3908,-7.3839,-7.3838,-7.3814,-7.3826,-7.3941,-7.3955,-7.3874,-7.3868,-7.3884,-7.3975,-7.4013,-7.4025,-7.4205,-7.4046,-7.4055,-7.4061,-7.4065,-7.4529,-7.4535,0,0,0,0,0,0,-7.3657,-7.3677,-7.3905,-7.3912,-7.3738,-7.3824,-7.3838,-7.3897,-7.3954,-7.3957,-7.3889,-7.3879,-7.3999,-7.4013,-7.4029,-7.4239,-7.4057,-7.4066,-7.4072,-7.4523,-7.4531,-7.4538,0,0,0,0,0,0,-7.3651,-7.3678,-7.39,-7.3793,-7.382,-7.3836,-7.3903,-7.3902,-7.394,-7.3965,-7.3966,-7.3926,-7.3995,-7.4014,-7.4152,-7.4242,-7.4071,-7.408,-7.4516,-7.4525,-7.4534,-7.4664,0,0,0,0,0,0,-7.3642,-7.3676,-7.3746,-7.3796,-7.3826,-7.4025,-7.3909,-7.3909,-7.3959,-7.3948,-7.4,-7.4003,-7.3992,-7.4138,-7.4162,-7.4253,-7.4088,-7.4508,-7.452,-7.4531,-7.4651,-7.4676,-7.4698,0,0,0,0,0,-7.3631,-7.3777,-7.375,-7.3778,-7.3914,-7.403,-7.4047,-7.4033,-7.3966,-7.4035,-7.405,-7.4001,-7.4229,-7.4153,-7.418,-7.4275,-7.4502,-7.4517,-7.453,-7.4641,-7.4671,-7.4697,0,0,0,0,0,0,-7.3736,-7.3783,-7.3754,-7.392,-7.3972,-7.4015,-7.4102,-7.4066,-7.4136,-7.4123,-7.41,-7.4113,-7.4257,-7.4279,-7.4194,-7.4448,-7.4354,-7.4374,-7.4429,-7.4458,-7.4481,-7.4472,-7.4096,0,0,0,0,0,-7.3779,-7.3872,-7.3907,-7.405,-7.4078,-7.4086,-7.4136,-7.412,-7.4172,-7.4193,-7.4218,-7.4269,-7.4351,-7.4406,-7.4483,-7.4654,-7.4663,-7.4732,-7.4755,-7.4774,-7.4792,-7.4881,-7.4912,-7.4584,-7.4584,-7.4584,0,0,-7.3868,-7.3905,-7.3964,-7.4072,-7.411,-7.4204,-7.4104,-7.4209,-7.4277,-7.4208,-7.434,-7.4361,-7.4415,-7.457,-7.4639,-7.4592,-7.4884,-7.4792,-7.4807,-7.4814,-7.4899,-7.493,-7.4958,-7.4594,-7.4592,-7.4591,0,0,-7.4077,-7.4116,-7.4239,-7.4279,-7.4339,-7.4343,-7.4372,-7.4421,-7.4432,-7.4565,-7.4514,-7.4594,-7.4737,-7.4777,-7.4817,-7.504,-7.4996,-7.5065,-7.5186,-7.5274,-7.53,-7.5323,-7.5401,-7.5429,-7.5083,-7.5083,-7.5084,0,-7.418,-7.4322,-7.4306,-7.4414,-7.4462,-7.4405,-7.4528,-7.4567,-7.4648,-7.4681,-7.4628,-7.4805,-7.4838,-7.5001,-7.5055,-7.5089,-7.512,-7.506,-7.5298,-7.5321,-7.5341,-7.5416,-7.5445,-7.5091,-7.509,-7.5089,-7.5089,0,-7.4444,-7.4543,-7.4635,-7.4717,-7.4774,-7.4889,-7.4888,-7.4948,-7.4927,-7.4936,-7.507,-7.5107,-7.519,-7.5228,-7.5208,-7.5387,-7.5356,-7.5301,-7.5206,-7.5381,-7.545,-7.5479,-7.5103,-7.51,-7.5097,-7.5095,0,0,-7.4724,-7.4795,-7.4829,-7.4864,-7.4925,-7.5,-7.5111,-7.5194,-7.5245,-7.5302,-7.5393,-7.5515,-7.5464,-7.5508,-7.5492,-7.5569,-7.5742,-7.5504,-7.5505,-7.5546,-7.5939,-7.598,-7.6013,-7.5713,-7.5719,-7.5723,-7.5934,0,-7.4936,-7.5133,-7.512,-7.5303,-7.5393,-7.5339,-7.5435,-7.5482,-7.5492,-7.5568,-7.5578,-7.5665,-7.5592,-7.5618,-7.5692,-7.5706,-7.582,-7.569,-7.5795,-7.58,-7.5784,-7.605,-7.6094,-7.6291,-7.5961,-7.5966,-7.5969,0,-7.5211,-7.5279,-7.5472,-7.5517,-7.5554,-7.5642,-7.5715,-7.579,-7.5839,-7.5841,-7.5891,-7.5861,-7.597,-7.5873,-7.6021,-7.5933,-7.5975,-7.5988,-7.5995,-7.6004,-7.5895,-7.6065,-7.6354,-7.6383,-7.6012,-7.6009,-7.6005,0,-7.5394,-7.5534,-7.5667,-7.5699,-7.5756,-7.5818,-7.5844,-7.5889,-7.5939,-7.6002,-7.6034,-7.6109,-7.615,-7.6207,-7.6198,-7.6128,-7.6349,-7.625,-7.6351,-7.6352,-7.64,-7.6397,-7.6699,-7.6429,-7.6428,-7.6428,-7.6427,0,-7.5632,-7.5752,-7.575,-7.5832,-7.5963,-7.5947,-7.6076,-7.6095,-7.6135,-7.6217,-7.6174,-7.6252,-7.6235,-7.6311,-7.6304,-7.6427,-7.6446,-7.6449,-7.6445,-7.6453,-7.6452,-7.6479,-7.6465,-7.6435,-7.6434,-7.6432,-7.6431,0,-7.586,-7.5864,-7.6005,-7.6048,-7.6061,-7.6156,-7.619,-7.6266,-7.6273,-7.6377,-7.6401,-7.641,-7.6498,-7.6494,-7.6593,-7.6588,-7.6739,-7.672,-7.6723,-7.6719,-7.6819,-7.681,-7.7149,-7.7192,-7.6894,-7.6897,-7.69,0,-7.6012,-7.6102,-7.6155,-7.6208,-7.6239,-7.6324,-7.6375,-7.6361,-7.6416,-7.6479,-7.6546,-7.663,-7.6697,-7.6839,-7.6853,-7.6927,-7.6909,-7.7023,-7.692,-7.6924,-7.6909,-7.6904,-7.6912,-7.7043,-7.7046,-7.7049,-7.7051,0,-7.628,-7.6277,-7.6353,-7.643,-7.6492,-7.6552,-7.6606,-7.6651,-7.6642,-7.6705,-7.6795,-7.6847,-7.6948,-7.7031,-7.7102,-7.7126,-7.7087,-7.7084,-7.7111,-7.7119,-7.7116,-7.7118,-7.6777,-7.7076,-7.7073,-7.7072,-7.707,-7.7069,-7.6473,-7.6551,-7.6599,-7.6685,-7.6725,-7.6776,-7.6849,-7.6865,-7.6941,-7.7023,-7.7009,-7.711,-7.7154,-7.7247,-7.7277,-7.7353,-7.7312,-7.7352,-7.7362,-7.7372,-7.7383,-7.7105,-7.7366,-7.7365,-7.7365,-7.7364,-7.7364,0,-7.6738,-7.6766,-7.6846,-7.6923,-7.699,-7.6949,-7.7007,-7.7065,-7.7154,-7.72,-7.7267,-7.7369,-7.7449,-7.7469,-7.7545,-7.7602,-7.7586,-7.7623,-7.7618,-7.7623,-7.7415,-7.7384,-7.7634,-7.7634,-7.7634,-7.7634,-7.7634,-7.7634,-7.6883,-7.7012,-7.7015,-7.7162,-7.7188,-7.7288,-7.7324,-7.737,-7.7407,-7.7524,-7.759,-7.7604,-7.7639,-7.7717,-7.7787,-7.7791,-7.782,-7.7864,-7.786,-7.7665,-7.7638,-7.7612,-7.7583,-7.7871,-7.7871,-7.8062,-7.8064,-7.8065]}]]